Location: Perryvale
(54.4667°N, 113.3833°W)
Time: 19:09:55
(UTC+00:00)

SR - Pass Details

Date: 24 May 2024
Orbit: 580 x 858 km, 66.7° (Epoch: 19 June)

Event Time Altitude Azimuth Distance (km) Brightness Sun altitude
Rises 09:06:58 0° 317° (NW) 2,909 ? -11.8°
Reaches altitude 10° 09:09:17 10° 315° (NW) 1,969 ? -11.7°
Maximum altitude 09:13:38 66° 233° (SW) 647 ? -11.5°
Drops below altitude 10° 09:17:49 10° 152° (SSE) 1,895 ? -11.2°
Sets 09:20:02 0° 149° (SSE) 2,790 ? -11.1°
